Location: Lipsett
(52.7836°N, 104.6863°W)
Time: 05:03:52
(UTC+00:00)

X-37B - Visible Passes

Search period start: 16 August 2022 00:00
Search period end: 26 August 2022 00:00
Orbit: 328 x 343 km, 45.0° (Epoch: 12 August)

Date Brightness Start Highest point End Pass type
(mag) Time Alt. Az. Time Alt. Az. Time Alt. Az.
23 Aug 2.7 03:40:39 10° SSW 03:41:12 12° S 03:41:12 12° S visible
24 Aug 2.7 04:00:21 10° SW 04:00:57 13° SSW 04:00:57 13° SSW visible
25 Aug 2.5 02:46:06 10° SSW 02:47:36 13° SSE 02:49:07 10° SE visible
25 Aug 3.1 04:20:27 10° SW 04:20:32 10° SW 04:20:32 10° SW visible
